TimeEDT,TemperatureF,Dew PointF,Humidity,Sea Level PressureIn,VisibilityMPH,Wind Direction,Wind SpeedMPH,Gust SpeedMPH,PrecipitationIn,Events,Conditions,WindDirDegrees,DateUTC
12:55 AM,66.2,60.4,82,30.06,10.0,ENE,9.2,-,N/A,,Clear,60,2012-10-22 04:55:00
1:55 AM,64.9,60.8,86,30.06,10.0,ENE,9.2,-,N/A,,Clear,60,2012-10-22 05:55:00
2:55 AM,64.9,60.8,86,30.05,10.0,ENE,9.2,-,N/A,,Clear,60,2012-10-22 06:55:00
3:55 AM,64.6,60.6,87,30.04,10.0,ENE,10.4,-,N/A,,Clear,70,2012-10-22 07:55:00
4:55 AM,64.8,61.2,88,30.04,10.0,ENE,8.1,-,N/A,,Clear,60,2012-10-22 08:55:00
5:55 AM,63.9,60.8,90,30.04,10.0,ENE,6.9,-,N/A,,Clear,60,2012-10-22 09:55:00
6:55 AM,64.2,61.5,91,30.06,10.0,ENE,8.1,-,N/A,,Clear,70,2012-10-22 10:55:00
7:55 AM,64.0,62.1,93,30.08,10.0,ENE,8.1,-,N/A,,Clear,70,2012-10-22 11:55:00
8:55 AM,69.3,64.4,84,30.10,10.0,ENE,11.5,-,N/A,,Clear,70,2012-10-22 12:55:00
9:55 AM,74.7,64.9,72,30.10,10.0,ENE,12.7,-,N/A,,Clear,70,2012-10-22 13:55:00
10:55 AM,79.2,65.7,63,30.09,10.0,ENE,13.8,-,N/A,,Clear,70,2012-10-22 14:55:00
11:55 AM,81.7,66.4,60,30.09,10.0,East,15.0,-,N/A,,Clear,80,2012-10-22 15:55:00
12:55 PM,83.8,66.2,55,30.07,10.0,East,16.1,-,N/A,,Clear,90,2012-10-22 16:55:00
1:55 PM,86.0,66.2,51,30.03,10.0,East,13.8,-,N/A,,Clear,80,2012-10-22 17:55:00
2:55 PM,86.0,64.8,49,30.01,10.0,East,17.3,-,N/A,,Clear,80,2012-10-22 18:55:00
3:55 PM,85.8,61.9,44,30.00,10.0,East,15.0,-,N/A,,Partly Cloudy,100,2012-10-22 19:55:00
4:55 PM,84.7,61.5,45,29.99,10.0,East,12.7,-,N/A,,Partly Cloudy,100,2012-10-22 20:55:00
5:55 PM,83.1,64.8,54,30.00,10.0,East,12.7,-,N/A,,Clear,80,2012-10-22 21:55:00
6:55 PM,79.5,64.0,59,30.01,10.0,East,11.5,-,N/A,,Clear,100,2012-10-22 22:55:00
7:55 PM,77.0,64.6,65,30.04,10.0,East,10.4,-,N/A,,Clear,100,2012-10-22 23:55:00
8:55 PM,75.0,64.2,69,30.07,10.0,East,10.4,-,N/A,,Clear,80,2012-10-23 00:55:00
9:55 PM,73.4,65.3,76,30.08,10.0,East,10.4,-,N/A,,Clear,80,2012-10-23 01:55:00
10:55 PM,71.8,65.5,80,30.09,10.0,ENE,15.0,-,N/A,,Clear,70,2012-10-23 02:55:00
11:55 PM,70.7,65.3,83,30.08,10.0,ENE,12.7,-,N/A,,Partly Cloudy,70,2012-10-23 03:55:00